Volver al catálogo

STARLINK-35090

ActivoComunicacionesVLEO
NORAD 65698·PAYLOAD·🇺🇸 United States

Lanzado Sep 21, 2025 desde Cape Canaveral Space Force Station

Loading…

Próximos Pases (próximas 24 horas)

TLE

ActualizadoSource: CelesTrak SupGP

Época: Sep 14, 2026, 22:56 UTC

1 65698C 25212Y   26257.95604167 -.00060742  00000+0 -17927-2 0  2571
2 65698  53.1582 183.3198 0001337  93.8286  13.8044 15.34454428    14

Sigue STARLINK-35090 en tiempo real con AllMySat

Download on the App Store